write mail from CFAD0::NAKANO on 2004-08-19 04:53:31(JST).



    P/2004 K2 (McNaught)                                                  

Epoch 2004 June 4.0 TT = JDT 2453160.5  

T 2004 June 16.83518 TT                                 Nakano

q   1.5546308            (2000.0)            P               Q

n   0.17887014     Peri.  180.78591     +0.87383106     +0.48110857

a   3.1196855      Node   150.12911     -0.44533241     +0.85001158

e   0.5016707      Incl.    8.12416     -0.19518792     +0.21451074

P   5.51 (+/- 0.90 day)

From 46 observations 2004 May 20-July 31, mean residual 0".79.

         **** Don't distribute anyone except personal use only ****

                (C) Copyright 2004 OAA/ComputingSection

write mail from CFAD0::NAKANO on 2004-08-04 23:10:27(JST).

---------------------------------------------------------------------------

    Syuichi Nakano, P. O. Box No. 32, Sumoto, Hyogo-Ken, 656-8691 Japan

     An Associate of the Minor Planet Center   snakano@cfa.harvard.edu

         http://www.oaa.gr.jp/   08-04-2004, 23:27:51 +09:00 (JST)

               OS/2 and Digital UNIX in Operating Systems

             **** Please reply ONLY to nakano@oaa.gr.jp ****









    P/2004 K2 (McNaught)                                                  

T 2004 June 16.65389 TT                                 Nakano

q   1.5508392            (2000.0)            P               Q

n   0.18536852     Peri.  180.67253     +0.87189946     +0.48457492

a   3.0463424      Node   150.01447     -0.44861541     +0.84820089

e   0.4909176      Incl.    8.11604     -0.19630473     +0.21387470

P   5.32 (+/- 3.32 day)

From 42 observations 2004 May 20-June 30.



NAKANO

         **** Don't distribute anyone except personal use only ****

                (C) Copyright 2004 OAA/ComputingSection

write mail from CFAD0::NAKANO on 2004-07-03 22:20:30(JST).

 



◎P/2004 K2の軌道と予報位置です



  久万の中村彰正氏によって6月30日に観測されました.氏の CCD全光度は,

17.8等でした.



    P/2004 K2 (McNaught)                                                  

T 2004 June 16.63647 TT                                 Nakano

q   1.5505848            (2000.0)            P               Q

n   0.18580097     Peri.  180.66096     +0.87174104     +0.48485900

a   3.0416137      Node   150.00739     -0.44888562     +0.84805000

e   0.4902098      Incl.    8.11497     -0.19639055     +0.21382922

P   5.30 (+/- 3.93 day)

From 34 observations 2004 May 20-June 30.

                    

 

Date/        TT  R.A.(2000) Decl.     Delta   r     Daily motion  Mag.  Moon Age

              h    h  m       。  ,                      ,  / PA 。  m1      。

2004 July  1 18  01 16.30  +06 19.7   1.366  1.557    38.4 /  77  17.1  110  .99

           2 18  01 18.82  +06 28.0   1.361  1.558    38.2 /  78  17.1   95 1.00

           3 18  01 21.32  +06 36.2   1.356  1.559    38.0 /  78  17.1   81  .97

           4 18  01 23.81  +06 44.2   1.351  1.560    37.7 /  78  17.1   67  .92

           5 18  01 26.29  +06 52.0   1.345  1.562    37.5 /  78  17.1   53  .85

           6 18  01 28.75  +06 59.7   1.340  1.563    37.3 /  78  17.1   39  .76

           7 18  01 31.21  +07 07.1   1.335  1.564    37.0 /  79  17.1   27  .66

           8 18  01 33.65  +07 14.4   1.330  1.565    36.8 /  79  17.1   14  .56

           9 18  01 36.07  +07 21.4   1.325  1.567    36.6 /  79  17.1    2  .46

          10 18  01 38.49  +07 28.3   1.320  1.568    36.3 /  79  17.1   10  .36

          11 18  01 40.89  +07 35.0   1.315  1.569    36.0 /  80  17.1   21  .27

          12 18  01 43.27  +07 41.5   1.310  1.571    35.8 /  80  17.0   33  .19

          13 18  01 45.64  +07 47.7   1.305  1.572    35.5 /  80  17.0   44  .12

          14 18  01 48.00  +07 53.8   1.300  1.574    35.2 /  80  17.0   55  .07

          15 18  01 50.34  +07 59.7   1.295  1.576    35.0 /  81  17.0   66  .03

          16 18  01 52.66  +08 05.4   1.290  1.578    34.7 /  81  17.0   78  .01

          17 18  01 54.96  +08 10.8   1.285  1.579    34.4 /  81  17.0   89  .00

          18 18  01 57.25  +08 16.1   1.281  1.581    34.1 /  81  17.0  101  .02

          19 18  01 59.52  +08 21.1   1.276  1.583    33.8 /  82  17.0  112  .05

          20 18  02 01.78  +08 26.0   1.271  1.585    33.5 /  82  17.0  124  .10

          21 18  02 04.01  +08 30.6   1.266  1.587    33.2 /  82  17.0  136  .17

          22 18  02 06.23  +08 35.0   1.261  1.589    32.9 /  83  17.0  148  .25

          23 18  02 08.43  +08 39.2   1.256  1.591    32.5 /  83  17.0  161  .35

          24 18  02 10.60  +08 43.2   1.252  1.593    32.2 /  83  17.0  173  .46

          25 18  02 12.76  +08 47.0   1.247  1.596    31.9 /  84  17.0  172  .57

          26 18  02 14.90  +08 50.5   1.242  1.598    31.6 /  84  17.0  159  .68

          27 18  02 17.02  +08 53.9   1.237  1.600    31.2 /  84  17.0  145  .78

          28 18  02 19.12  +08 57.0   1.233  1.603    30.9 /  85  17.0  131  .87

          29 18  02 21.19  +08 59.9   1.228  1.605    30.5 /  85  17.0  117  .94

          30 18  02 23.24  +09 02.7   1.223  1.607    30.2 /  85  17.0  102  .98

          31 18  02 25.28  +09 05.1   1.219  1.610    29.8 /  86  17.0   88 1.00

     Aug.  1 18  02 27.28  +09 07.4   1.214  1.613    29.5 /  86  17.0   74  .98

NAKANO

         **** Don't distribute anyone except personal use only ****

                (C) Copyright 2004 OAA/ComputingSection

write mail from CFAD0::NAKANO on 2004-07-02 03:39:37(JST).

 



戻ります。